Location: Wiesbaden
(50.0830°N, 8.2500°E)
Time: 09:32:56
(UTC+01:00)

ISS - Visible Passes

Search period start: 25 January 2021 00:00
Search period end: 04 February 2021 00:00
Orbit: 418 x 421 km, 51.6° (Epoch: 25 January)

Date Brightness Start Highest point End Pass type
(mag) Time Alt. Az. Time Alt. Az. Time Alt. Az.
25 Jan -3.5 17:57:40 10° WSW 18:01:00 63° SSE 18:04:02 12° ENE visible
25 Jan -2.7 19:34:30 10° W 19:37:00 44° WNW 19:37:00 44° WNW visible
26 Jan -3.7 18:47:05 10° W 18:50:29 71° N 18:51:35 39° ENE visible
26 Jan -0.5 20:24:03 10° WNW 20:24:33 14° WNW 20:24:33 14° WNW visible
27 Jan -3.7 17:59:40 10° WSW 18:03:04 81° NNW 18:06:09 12° ENE visible
27 Jan -2.7 19:36:39 10° WNW 19:39:07 43° WNW 19:39:07 43° WNW visible
28 Jan -3.7 18:49:14 10° W 18:52:37 65° N 18:53:41 38° ENE visible
28 Jan -0.5 20:26:08 10° WNW 20:26:40 14° WNW 20:26:40 14° WNW visible
29 Jan -3.6 18:01:47 10° W 18:05:10 65° N 18:08:16 12° E visible
29 Jan -2.8 19:38:42 10° WNW 19:41:15 48° WNW 19:41:15 48° WNW visible
30 Jan -3.8 18:51:17 10° WNW 18:54:41 78° NNE 18:55:52 37° E visible
30 Jan -0.5 20:28:13 10° W 20:28:51 14° W 20:28:51 14° W visible
31 Jan -3.7 18:03:51 10° WNW 18:07:14 69° N 18:10:32 10° E visible
31 Jan -2.7 19:40:43 10° WNW 19:43:31 45° WSW 19:43:31 45° WSW visible
01 Feb -3.6 18:53:16 10° WNW 18:56:38 68° SSW 18:58:16 28° SE visible
01 Feb -0.5 20:30:42 10° W 20:31:15 12° WSW 20:31:15 12° WSW visible
02 Feb -3.7 18:05:49 10° WNW 18:09:13 87° SSW 18:12:36 10° ESE visible
02 Feb -1.9 19:42:55 10° W 19:45:44 25° SW 19:46:06 24° SSW visible
03 Feb -2.3 18:55:17 10° W 18:58:25 35° SSW 19:01:05 13° SSE visible
